Total_Precipitation_Accumulation
0.11 0.13 0.20 0.26 0.35 0.46 0.51 0.60 0.66 0.78 0.90 0.99 1.14 1.10 1.05 1.08 1.11 1.07 1.05 1.02 1.07 1.07 0.99 0.93 0.94 0.95 0.91 0.84 0.80 0.78 0.77 0.73 0.67 0.72 0.77 0.72 0.59 0.52 0.48 0.45 0.42 0.38 0.35
0.11 0.13 0.21 0.27 0.34 0.47 0.52 0.59 0.69 0.79 0.85 0.92 1.01 1.09 1.07 1.09 1.14 1.11 1.09 1.05 1.03 1.06 1.07 0.99 0.91 0.87 0.88 0.88 0.83 0.82 0.81 0.82 0.77 0.75 0.82 0.84 0.81 0.64 0.48 0.43 0.44 0.42 0.41
0.14 0.15 0.23 0.30 0.35 0.46 0.53 0.58 0.69 0.79 0.85 1.00 1.09 1.18 1.30 1.29 1.30 1.29 1.18 1.08 1.04 1.01 1.02 1.03 0.98 0.91 0.85 0.86 0.84 0.80 0.78 0.79 0.76 0.68 0.82 0.89 0.78 0.62 0.52 0.44 0.39 0.38 0.41
0.14 0.16 0.21 0.31 0.35 0.42 0.54 0.61 0.72 0.81 0.84 1.02 1.16 1.13 1.22 1.23 1.15 1.10 1.13 1.09 1.06 1.02 0.97 0.97 0.97 0.99 0.93 0.83 0.79 0.80 0.80 0.82 0.83 0.73 0.65 0.68 0.68 0.71 0.61 0.51 0.46 0.42 0.41
0.13 0.13 0.15 0.21 0.30 0.37 0.50 0.61 0.75 0.85 0.88 0.95 1.13 1.17 1.11 1.10 1.10 1.11 1.10 1.13 1.13 1.07 0.99 0.95 0.94 0.94 0.92 0.84 0.78 0.79 0.82 0.84 0.84 0.80 0.70 0.64 0.56 0.56 0.67 0.56 0.49 0.52 0.49
0.13 0.12 0.11 0.14 0.26 0.37 0.48 0.57 0.70 0.83 0.89 0.90 1.01 1.17 1.12 1.08 1.08 1.11 1.14 1.14 1.16 1.14 1.04 0.93 0.90 0.86 0.83 0.82 0.76 0.71 0.72 0.76 0.76 0.73 0.72 0.73 0.70 0.60 0.62 0.60 0.47 0.46 0.48
0.14 0.14 0.12 0.13 0.21 0.32 0.44 0.54 0.65 0.74 0.82 0.85 0.90 1.00 1.11 1.08 1.01 0.96 1.01 1.09 1.16 1.11 1.04 0.97 0.89 0.82 0.79 0.78 0.77 0.73 0.68 0.68 0.72 0.71 0.67 0.65 0.62 0.58 0.63 0.71 0.63 0.54 0.49
0.10 0.11 0.13 0.16 0.19 0.24 0.31 0.44 0.56 0.69 0.82 0.86 0.86 0.92 1.01 1.12 1.03 0.95 0.94 0.98 1.03 0.99 0.91 0.92 0.89 0.81 0.77 0.79 0.80 0.80 0.73 0.70 0.71 0.68 0.67 0.66 0.61 0.62 0.69 0.80 0.87 0.82 0.60
0.10 0.10 0.12 0.15 0.18 0.23 0.26 0.37 0.46 0.61 0.80 0.92 0.92 0.92 0.95 1.03 1.04 0.96 0.93 0.94 0.95 0.94 0.92 0.92 0.91 0.86 0.85 0.85 0.85 0.86 0.80 0.76 0.73 0.72 0.71 0.72 0.68 0.67 0.69 0.75 0.87 1.09 0.97
0.11 0.11 0.13 0.15 0.18 0.21 0.25 0.31 0.41 0.49 0.63 0.82 0.96 0.96 0.93 0.93 0.99 1.01 0.98 0.94 0.94 0.94 0.93 0.97 0.98 0.93 0.89 0.92 0.95 0.90 0.84 0.84 0.81 0.80 0.81 0.77 0.72 0.75 0.78 0.82 0.82 0.89 1.02
0.11 0.12 0.13 0.16 0.18 0.21 0.27 0.33 0.40 0.47 0.54 0.64 0.81 0.93 0.95 0.97 1.02 1.04 1.00 0.99 0.97 0.95 0.92 0.91 0.98 1.01 0.95 0.88 0.95 0.97 0.94 0.92 0.86 0.83 0.85 0.81 0.77 0.86 0.89 0.94 0.93 0.88 0.91
0.10 0.10 0.11 0.17 0.20 0.25 0.30 0.36 0.43 0.46 0.50 0.58 0.68 0.80 0.91 0.96 1.01 1.00 1.02 1.07 1.06 1.00 0.91 0.87 0.94 1.00 1.00 0.91 0.90 0.93 0.93 0.95 0.92 0.88 0.89 0.88 0.85 0.89 0.92 1.00 1.00 0.91 0.86
0.09 0.10 0.12 0.17 0.22 0.27 0.30 0.37 0.45 0.44 0.46 0.57 0.67 0.77 0.88 0.92 0.95 0.91 0.94 1.09 1.20 1.16 1.02 0.93 0.95 1.02 1.07 1.02 0.92 0.93 0.93 0.90 0.87 0.85 0.90 0.93 0.94 0.90 0.90 1.00 1.05 0.99 0.93
0.10 0.11 0.14 0.17 0.21 0.24 0.28 0.33 0.41 0.47 0.50 0.53 0.64 0.73 0.82 0.84 0.84 0.83 0.84 0.96 1.13 1.23 1.16 1.03 0.97 1.02 1.14 1.18 1.14 1.13 1.05 0.96 0.85 0.77 0.79 0.89 1.02 1.03 1.05 1.09 1.08 1.10 1.14
0.11 0.12 0.14 0.17 0.22 0.26 0.29 0.32 0.37 0.47 0.54 0.53 0.61 0.64 0.71 0.80 0.80 0.78 0.81 0.90 1.03 1.10 1.14 1.11 1.04 1.04 1.24 1.47 1.63 1.51 1.22 1.02 0.91 0.76 0.71 0.81 1.05 1.24 1.41 1.47 1.36 1.37 1.49
0.12 0.13 0.14 0.17 0.24 0.28 0.32 0.36 0.40 0.45 0.53 0.53 0.58 0.60 0.68 0.79 0.82 0.76 0.79 0.90 1.00 1.05 1.07 1.07 1.06 1.03 1.21 1.57 1.80 1.48 1.13 0.99 0.92 0.85 0.75 0.80 1.04 1.18 1.31 1.46 1.44 1.48 1.67
0.14 0.14 0.17 0.21 0.24 0.30 0.31 0.37 0.41 0.45 0.51 0.53 0.54 0.60 0.69 0.73 0.80 0.80 0.82 0.92 1.01 1.04 1.03 1.01 1.00 0.97 1.03 1.36 1.60 1.37 1.07 0.95 0.90 0.86 0.81 0.83 0.93 1.06 1.08 1.19 1.23 1.26 1.44
0.19 0.17 0.19 0.23 0.23 0.27 0.27 0.31 0.37 0.48 0.55 0.55 0.52 0.59 0.66 0.69 0.78 0.83 0.85 0.95 1.03 1.01 1.01 1.00 0.97 0.93 0.97 1.25 1.50 1.32 1.06 0.97 0.91 0.91 0.85 0.79 0.83 0.95 1.11 1.19 1.15 1.08 1.16
0.23 0.22 0.21 0.22 0.22 0.25 0.25 0.25 0.31 0.44 0.55 0.58 0.52 0.55 0.63 0.68 0.76 0.81 0.88 0.95 1.03 1.00 0.97 0.96 0.98 0.93 0.91 1.16 1.51 1.40 1.09 1.01 0.95 0.94 0.89 0.79 0.75 0.94 1.11 1.09 1.06 0.99 1.04
0.21 0.22 0.21 0.21 0.22 0.25 0.26 0.24 0.28 0.37 0.48 0.57 0.49 0.51 0.57 0.61 0.69 0.76 0.86 0.93 0.93 0.92 0.94 0.91 0.91 0.89 0.85 1.01 1.41 1.53 1.14 1.04 0.97 0.96 0.92 0.98 0.96 1.05 1.08 0.99 1.05 1.14 1.03
0.22 0.20 0.20 0.22 0.25 0.26 0.25 0.26 0.29 0.33 0.42 0.53 0.49 0.51 0.55 0.58 0.66 0.75 0.78 0.85 0.89 0.87 0.92 0.91 0.89 0.88 0.86 0.90 1.17 1.51 1.25 1.08 0.98 0.99 0.98 0.93 1.07 1.10 1.06 1.04 1.02 1.18 1.11
0.22 0.22 0.21 0.22 0.23 0.24 0.27 0.28 0.32 0.33 0.40 0.49 0.50 0.55 0.60 0.61 0.65 0.71 0.70 0.73 0.83 0.87 0.89 0.93 0.96 0.93 0.89 0.92 1.12 1.33 1.29 1.18 0.99 0.96 0.89 0.88 1.03 1.09 1.12 1.08 1.12 1.17 1.17
0.24 0.24 0.24 0.22 0.22 0.23 0.28 0.33 0.37 0.37 0.42 0.47 0.50 0.56 0.63 0.66 0.67 0.66 0.68 0.72 0.78 0.85 0.89 0.90 0.92 0.94 0.91 0.95 1.15 1.15 1.18 1.18 1.07 1.06 1.09 1.05 1.14 1.17 1.09 1.06 1.10 1.07 1.01
0.27 0.27 0.27 0.25 0.24 0.24 0.27 0.35 0.40 0.39 0.43 0.46 0.48 0.54 0.59 0.66 0.69 0.64 0.62 0.65 0.73 0.85 0.86 0.86 0.84 0.83 0.87 1.01 1.13 1.05 1.04 1.12 1.18 1.20 1.19 1.20 1.22 1.18 1.12 1.06 0.96 0.88 0.90
0.30 0.29 0.30 0.29 0.27 0.26 0.30 0.37 0.40 0.40 0.44 0.43 0.43 0.47 0.50 0.62 0.72 0.71 0.65 0.64 0.65 0.81 0.90 0.85 0.82 0.86 0.96 1.11 1.21 1.12 1.09 1.14 1.21 1.30 1.34 1.29 1.24 1.22 1.11 0.97 0.85 0.82 0.86
0.33 0.31 0.31 0.31 0.31 0.32 0.35 0.40 0.41 0.41 0.41 0.42 0.42 0.44 0.48 0.56 0.66 0.70 0.72 0.78 0.76 0.79 0.79 0.78 0.83 0.83 0.96 1.07 1.07 1.09 1.12 1.20 1.28 1.33 1.32 1.16 1.01 0.97 0.92 0.86 0.81 0.78 0.77